Location: Nelson
(41.2830°S, 173.2830°E)
Time: 04:25:53
(UTC+13:00)

Cosmos 1741 Rocket - Pass Details

Date: 24 January 2019
Orbit: 761 x 783 km, 74.0° (Epoch: 21 February)

Event Time Altitude Azimuth Distance (km) Brightness Sun altitude
Rises 21:14:56 0° 346° (NNW) 3,256 7.1 -4.1°
Reaches altitude 10° 21:17:18 10° 348° (NNW) 2,338 6.3 -4.5°
Maximum altitude 21:22:37 78° 72° (ENE) 813 4.1 -5.3°
Drops below altitude 10° 21:28:02 10° 158° (SSE) 2,372 6.7 -6.2°
Sets 21:30:27 0° 159° (SSE) 3,308 7.4 -6.6°
